Location: Recife
(8.0585°S, 34.8848°W)
Time: 13:00:37
(UTC-03:00)

Vanguard 2 - Pass Details

Date: 16 April 2026
Orbit: 553 x 2895 km, 32.9° (Epoch: 13 May)

Event Time Altitude Azimuth Distance (km) Brightness Sun altitude
Rises 19:19:16 0° 306° (NW) 4,607 12.4 -30.8°
Reaches altitude 10° 19:21:51 10° 306° (NW) 3,887 11.8 -31.4°
Maximum altitude 19:32:56 88° 35° (NE) 2,285 9.6 -34.2°
Enters shadow 19:37:09 57° 122° (ESE) 2,791 9.9 -35.2°
